Location: Janesville
(42.6830°N, 89.0190°W)
Time: 06:45:51
(UTC-05:00)

Hubble Space Telescope - Visible Passes

Search period start: 04 August 2015 00:00
Search period end: 14 August 2015 00:00
Orbit: 541 x 545 km, 28.5° (Epoch: 03 August)

Date Brightness Start Highest point End Pass type
(mag) Time Alt. Az. Time Alt. Az. Time Alt. Az.
06 Aug 3.0 20:59:41 10° S 21:00:28 10° S 21:01:16 10° SSE visible
07 Aug 3.0 20:50:17 10° SSW 20:51:26 11° S 20:52:37 10° SSE visible
08 Aug 3.0 20:41:07 10° SSW 20:42:24 11° S 20:43:41 10° SSE visible
